Find Starlink 11204

NORAD ID: 60931 Int'l Des: 2024-155 Owner: SPXS Country: US Constellation: starlink operational
LEOCIRCULAR

实时位置

正在加载3D地球...

关于 Starlink 11204

正在加载描述...

即将过境

Passes for default location (London). Set your location on the main map for personalized predictions.

高度历史

Loading altitude history...

两行轨道根数

1 60931U 24155H 26127.76985218 .00024574 00000-0 20668-3 0 9997
2 60931 53.1585 49.8581 0000150 340.2126 19.8886 15.69757584 97684
Epoch: May 7, 2026 • Age: 12 hours

当前状态

高度 363.8 km
速度 7.70 km/s
星下点 43.49°N, 121.88°E
发射日期 Aug 31, 2024
运行时间 1.6 years
类型 internet

技术详情

分类 Payload
质量 960.00 kg
干质量 910.00 kg
总质量 960.00 kg
长度 0.30 m
直径 4.10 m
跨度 29.00 m
形状 Box + pan
制造商 SPXS
平台类型 Starlink V2MD
阶段状态 In Orbit
所有者/国家 SPXS/US

Most Searched